Regional Weather Roundup
Issued by NWS

Home | Current Version | Previous Version | Graphics & Text | Print | Product List | Glossary On
Versions: 1 2 3 4 5 6 7 8 9 10 11 12 13 14 15 16 17 18 19 20 21 22 23 24 25 26 27 28 29 30 31 32 33 34 35 36 37 38 39 40 41 42 43 44 45 46 47 48 49 50
000
ASUS43 KBIS 050520
RWRND

NORTH DAKOTA REGIONAL WEATHER ROUNDUP
NATIONAL WEATHER SERVICE BISMARCK ND
1100 PM CST WED MAR 04 2015

NOTE: "FAIR" INDICATES FEW OR NO CLOUDS BELOW 12,000 FEET WITH NO
SIGNIFICANT WEATHER AND/OR OBSTRUCTIONS TO VISIBILITY.


NDZ001>003-009>011-017-050600-
NORTHWEST NORTH DAKOTA

CITY           SKY/WX    TMP DP  RH WIND       PRES   REMARKS
WILLISTON      PTCLDY     0  -9  65 S5        30.22F WCI -10
MINOT          PTCLDY   -10 -16  74 CALM      30.27F
MINOT AFB      MOCLDY   -10 -16  75 SW6       30.27F WCI -24
$$

NDZ018>021-031>035-040>046-050600-
SOUTHWEST NORTH DAKOTA

CITY           SKY/WX    TMP DP  RH WIND       PRES   REMARKS
BISMARCK       PTCLDY    -5 -14  65 E3        30.34F
DICKINSON      CLEAR     -3 -10  72 S8        30.18S WCI -18
GARRISON         N/A    -11 -16  78 CALM      30.28S
HETTINGER ARPT CLEAR      1  -8  66 SE5       30.22S WCI  -9
$$

NDZ004>008-012>016-024-026-027-054-050600-
NORTHEAST NORTH DAKOTA

CITY           SKY/WX    TMP DP  RH WIND       PRES   REMARKS
GRAND FORKS    CLEAR    -11 -17  75 W7        30.40S WCI -26
GRND FRKS AFB  CLEAR    -10 -18  68 W6        30.39S WCI -24
DEVILS LAKE    PTCLDY    -9 -18  64 SW8       30.32F WCI -26
$$

NDZ022-023-025-028>030-036>039-047>053-050600-
SOUTHEAST NORTH DAKOTA

CITY           SKY/WX    TMP DP  RH WIND       PRES   REMARKS
FARGO          CLEAR     -5 -14  65 W8        30.43R WCI -20
JAMESTOWN      CLEAR     -7 -14  71 W6        30.36R WCI -20
$$



USA.gov is the U.S. government's official web portal to all federal, state and local government web resources and services.